Vertical_Velocity
-6 -3 -3 -5 -2 1 -8 -0 13 3 2 -0 8 3 -0 6 -3 -4 2 -2 -2 -0 -2 -1 -1 -3 -9
-6 -3 -5 -2 -6 -5 14 3 -4 -6 -0 -5 3 5 9 12 2 -0 -1 -0 -2 -3 -3 2 4 -3 1
-6 -6 -3 -1 -5 -6 -4 2 -6 7 -1 2 1 1 1 -7 -8 -4 -2 3 -2 -3 1 -2 -2 -0 -0
-6 -2 -1 -1 -0 -2 -1 -0 -4 -1 -2 0 3 -5 -3 -2 -0 1 -2 -3 -0 -2 2 1 2 -1 -2
-1 -1 2 1 0 -0 2 0 1 4 -2 3 2 3 -4 1 1 -3 1 1 -2 -1 1 -1 -0 2 -1
-3 -2 -2 -3 -2 1 1 2 3 -2 2 0 6 -1 -2 8 -2 0 1 -1 1 -0 -1 -5 -1 -0 1
-2 -3 -3 -3 -3 -3 -2 1 2 3 3 0 -4 7 -3 -1 3 -1 1 3 0 1 0 -1 -4 -4 -3
-3 -3 -3 -3 1 -2 -1 -1 -2 -9 2 7 -9 2 9 8 3 2 2 1 2 -1 -2 1 1 1 1
-2 0 -2 -3 -1 -7 -6 -3 -2 -7 -3 -3 -5 -6 -1 -0 -0 3 1 2 2 3 1 -1 -1 -2 -2
-0 -2 -1 -3 -2 2 2 0 0 1 4 5 -3 3 -1 4 1 1 -2 -1 -0 0 -2 -2 -2 0 -1
-2 -1 -2 -4 -5 -4 -3 -2 -3 -3 0 4 -5 -4 2 -3 -0 -0 -1 -1 1 -1 -2 0 1 3 2
-0 -0 0 1 0 0 -1 -1 -2 -1 -3 1 1 -4 0 1 6 -12 1 0 1 2 -2 0 3 -1 4
0 -0 -1 -2 -1 -2 -3 -2 -4 -3 -4 -3 2 4 2 4 5 1 -3 -7 3 2 -0 -1 -2 -1 3
-0 -0 -1 -2 -3 -2 -3 1 -1 -4 1 -2 -1 -1 -0 0 7 13 -10 1 -5 -6 -4 -0 -3 -2 -4
-2 -2 -2 -3 -4 -2 -1 -3 -0 -2 -8 -7 4 5 3 5 6 3 10 5 -2 0 -7 -2 -1 -3 -6
-1 -1 -2 -3 -2 -4 -1 -1 0 -3 -1 -4 -7 -4 -2 6 -3 9 8 4 4 -1 1 -6 2 -3 -7
-2 -1 -2 -1 -2 -4 -3 -1 0 2 -2 -2 -4 -4 1 2 15 -14 1 -1 -3 5 0 -2 -3 19 -8
Height
5634 5627 5622 5614 5614 5615 5617 5621 5624 5628 5632 5635 5638 5641 5643 5644 5644 5644 5644 5647 5648 5649 5651 5651 5653 5655 5658
5628 5622 5614 5608 5607 5609 5606 5612 5617 5620 5623 5625 5625 5629 5631 5630 5631 5632 5631 5632 5635 5635 5635 5637 5637 5638 5640
5624 5618 5612 5608 5606 5606 5608 5609 5611 5611 5613 5615 5617 5618 5619 5620 5620 5619 5618 5619 5620 5619 5619 5620 5620 5621 5622
5621 5614 5609 5606 5603 5601 5601 5602 5603 5604 5605 5606 5606 5608 5607 5606 5604 5604 5604 5605 5605 5603 5604 5605 5605 5605 5605
5619 5613 5608 5603 5599 5597 5596 5596 5596 5596 5596 5596 5595 5594 5593 5591 5590 5590 5589 5591 5590 5588 5589 5590 5589 5588 5587
5615 5610 5605 5601 5597 5593 5590 5589 5587 5587 5585 5583 5582 5581 5580 5579 5577 5577 5576 5575 5574 5572 5572 5573 5571 5568 5569
5609 5605 5600 5596 5593 5589 5585 5583 5580 5578 5577 5574 5570 5570 5567 5565 5564 5562 5560 5558 5556 5554 5553 5550 5549 5548 5548
5601 5597 5592 5589 5585 5581 5577 5574 5571 5567 5564 5561 5556 5554 5552 5549 5545 5543 5541 5538 5535 5532 5530 5530 5528 5526 5524
5594 5589 5584 5579 5576 5571 5567 5563 5559 5554 5551 5546 5542 5538 5534 5530 5526 5522 5518 5515 5513 5512 5510 5508 5507 5506 5504
5585 5580 5575 5570 5566 5562 5556 5551 5546 5541 5537 5532 5526 5522 5518 5512 5507 5502 5499 5498 5495 5493 5492 5492 5491 5491 5488
5575 5570 5565 5560 5555 5550 5544 5538 5532 5526 5522 5516 5509 5504 5499 5492 5488 5484 5483 5482 5480 5479 5479 5479 5478 5478 5475
5565 5560 5555 5550 5544 5537 5530 5523 5517 5511 5505 5499 5491 5485 5480 5476 5473 5468 5468 5467 5466 5465 5466 5466 5465 5464 5463
5555 5550 5544 5538 5530 5523 5515 5508 5501 5495 5487 5480 5474 5469 5464 5461 5458 5454 5452 5450 5451 5451 5451 5451 5451 5451 5449
5544 5538 5532 5525 5517 5509 5501 5494 5485 5477 5469 5463 5457 5453 5449 5446 5443 5439 5434 5435 5432 5432 5434 5436 5435 5434 5434
5533 5527 5520 5512 5503 5495 5487 5478 5469 5458 5451 5448 5444 5439 5433 5428 5426 5422 5420 5418 5416 5415 5416 5419 5420 5418 5417
5522 5515 5507 5498 5489 5481 5473 5464 5454 5445 5438 5432 5427 5422 5416 5410 5404 5402 5401 5400 5397 5398 5399 5402 5405 5402 5401
5510 5502 5494 5485 5477 5468 5459 5450 5440 5433 5425 5419 5413 5408 5401 5395 5390 5382 5379 5378 5379 5381 5381 5383 5388 5389 5385